Location: Bright Skies Observatory
(38.9689°N, 77.0681°W)
Time: 16:14:50
(UTC-05:00)

Daily predictions for brighter satellites

Satellite Brightness Start Highest point End
(mag) Time Altitude Azimuth Time Altitude Azimuth Time Altitude Azimuth
SMAP 3.4 17:09:57 10° SE 17:14:21 44° ENE 17:18:47 10° N
Cosmos 1346 Rocket 3.5 17:11:18 10° SSE 17:14:49 33° E 17:18:21 10° NNE
Cosmos 1455 Rocket 3.0 17:15:01 10° N 17:19:26 76° E 17:23:53 10° SSE
Genesis I 3.2 17:16:40 10° NNW 17:20:34 61° ENE 17:24:24 10° SE
NOSS 2-1 (D) 4.1 17:18:24 10° S 17:21:52 34° ESE 17:25:35 10° NE
NOSS 2-1 (C) 4.1 17:19:05 10° S 17:22:34 33° ESE 17:26:17 10° NE
Delta 2 Rocket 3.8 17:20:54 10° WSW 17:24:17 44° S 17:28:02 10° E
Cosmos 1833 Rocket 3.4 17:19:52 10° N 17:24:53 32° ENE 17:29:51 10° ESE
ISS -0.8 17:24:31 10° NNW 17:25:28 11° N 17:26:25 10° N
IDEFIX/ARIANE 42P 2.5 17:26:12 10° SSE 17:31:20 69° ENE 17:36:30 10° N
Cosmos 2082 Rocket 2.5 17:26:43 10° N 17:32:06 42° ENE 17:37:27 10° SE
Thor Agena Rocket 3.6 17:31:44 10° NNE 17:37:00 85° ESE 17:42:17 10° SSW
Tiangong 1 1.3 17:37:16 10° W 17:40:15 53° NNW 17:42:20 17° ENE
Cosmos 1500 3.1 17:36:45 10° N 17:40:35 68° E 17:44:24 10° SSE
Cosmos 1743 3.5 17:37:11 10° NNE 17:40:39 30° ENE 17:44:04 10° SE
NOSS 2-1 (E) 3.6 17:37:26 10° SSW 17:41:09 50° ESE 17:44:42 13° NE
TIMED 4.5 17:36:57 10° S 17:41:16 69° ESE 17:45:37 10° NNE
Okean 1-7 Rocket 4.1 17:37:20 10° SSE 17:41:32 40° E 17:45:43 10° NNE
Cosmos 375 4.5 17:37:44 10° NW 17:42:03 80° WSW 17:45:52 10° SSE
ASTRO F (AKARI) 4.4 17:39:04 10° NNE 17:42:08 49° ESE 17:45:13 10° S
SJ-7 4.4 17:39:07 10° SSE 17:43:21 80° ENE 17:47:36 10° N
AQUARIUS 4.4 17:44:50 10° S 17:49:18 77° WSW 17:53:49 10° NNW
Cosmos 1484 Rocket 3.0 17:49:51 10° SE 17:53:24 42° ENE 17:56:56 10° N
CZ-4 R/B 4.4 17:54:34 10° SSE 17:58:43 87° WSW 18:02:54 10° NNW
USA 234 3.6 17:53:20 11° NE 17:59:33 65° NW 18:05:59 10° WSW
Meteor 2-21 4.4 17:53:44 10° N 17:59:57 86° E 18:06:03 10° S
Cosmos 1975 3.7 17:56:28 10° NNW 18:00:24 51° W 18:04:19 10° S
CZ-4 R/B 3.3 18:02:04 10° SSW 18:05:52 34° W 18:09:40 10° NNW
Cosmos 1606 Rocket 4.2 18:03:04 10° NNE 18:07:06 32° ENE 18:11:07 10° SE
Meteor 1-13 Rocket 4.3 18:02:18 10° S 18:07:59 90° ESE 18:13:51 10° N
MSX 3.9 18:03:01 10° SSE 18:08:47 83° WSW 18:14:33 10° NNW
Meteor 1-23 Rocket 4.5 18:04:15 10° SSE 18:09:40 46° E 18:14:52 11° NNE
Cosmos 2369 Rocket 3.8 18:06:20 10° SE 18:08:55 16° ESE 18:08:55 16° ESE
Meteor 2-9 Rocket 4.4 18:05:10 10° N 18:10:16 42° ENE 18:15:17 10° SSE
Cosmos 2239 Rocket 4.4 18:04:22 10° N 18:10:30 60° E 18:16:33 10° SSE
MONITOR-E 4.5 18:10:13 10° S 18:13:23 71° WSW 18:16:36 10° NNW
Meteor 2-4 Rocket 3.6 18:08:33 10° S 18:13:47 57° E 18:19:01 10° NNE
CZ-2C R/B 3.7 18:09:17 10° S 18:14:02 44° W 18:18:57 10° NNW
Abrixas 2.3 18:11:19 10° WNW 18:14:17 89° NNE 18:15:00 48° ESE
COSMO-SKYMED 1 2.4 18:10:07 10° NNE 18:14:29 79° ESE 18:18:49 10° S
NOSS 3-4 (A) 4.0 18:08:19 10° NNW 18:15:09 51° NE 18:22:21 10° SE
NOSS 3-4 (C) 4.0 18:08:25 10° NNW 18:15:15 50° NE 18:22:27 10° SE
Meteor 2-14 Rocket 4.4 18:11:51 10° N 18:18:02 88° E 18:24:10 10° S
CZ-3B DEB 3.7 18:15:11 10° W 18:19:23 34° NNW 18:25:57 16° NE
Cosmos 2056 Rocket 3.5 18:15:15 10° S 18:20:32 61° ESE 18:23:51 23° NNE
Cosmos 407 Rocket 4.0 18:16:46 10° N 18:21:26 34° ENE 18:21:59 33° ENE
Cosmos 1821 Rocket 3.8 18:16:24 10° N 18:22:31 72° E 18:28:35 10° SSE
Cosmos 921 Rocket 3.9 18:20:36 10° SW 18:24:42 48° WNW 18:28:55 10° N
Cosmos 1025 Rocket 2.9 18:20:23 10° S 18:24:45 79° E 18:28:12 16° N
NOAA 12 4.2 18:19:50 10° SE 18:24:54 50° ENE 18:29:58 10° N
Cosmos 1605 Rocket 4.1 18:27:08 10° N 18:33:11 48° ENE 18:39:07 10° SSE
Cosmos 1624 Rocket 3.9 18:28:22 10° SSW 18:33:34 88° ESE 18:36:48 24° NNE
Cosmos 1340 4.2 18:33:20 10° SSE 18:34:57 23° SSE 18:34:57 23° SSE
Cosmos 1371 Rocket 4.3 18:33:57 10° SSW 18:39:16 67° WNW 18:43:24 17° N
METEOR-M 4.0 18:42:37 10° SSE 18:47:55 70° ENE 18:53:15 10° N
Cosmos 1666 3.3 18:51:06 10° NNW 18:54:53 56° W 18:58:41 10° S
GEOS 3 Rocket 3.6 19:00:07 62° NNE 19:00:07 62° NNE 19:04:45 10° NNW
Delta 2 Rocket 4.4 19:02:51 10° W 19:05:39 40° SW 19:05:39 40° SW
Cosmos 1833 Rocket 4.2 19:03:44 10° NW 19:08:47 35° WSW 19:13:48 10° SSW
Cosmos 1727 Rocket 3.8 19:03:04 10° S 19:09:16 81° E 19:10:52 52° NNE
Cosmos 1452 Rocket 3.9 19:04:19 10° S 19:08:13 50° S 19:08:13 50° S
Cosmos 1190 Rocket 4.2 19:07:08 10° NNW 19:12:20 68° WSW 19:15:36 23° S
Cosmos 2082 Rocket 4.3 19:11:20 10° NW 19:15:54 26° WSW 19:20:28 10° SSW
Tiangong 1 4.4 19:13:52 10° WNW 19:14:01 11° WNW 19:14:01 11° WNW
Cosmos 1892 Rocket 4.5 19:13:03 10° SSW 19:17:13 46° W 19:17:15 46° WNW
FALCON 9 R/B 3.1 19:03:58 10° W 19:23:14 67° S 19:24:36 57° SE
Cosmos 2369 Rocket 3.5 19:47:36 10° SW 19:50:46 34° SW 19:50:46 34° SW
ATLAS 3B CENTAUR R/B 4.4 20:12:03 10° W 20:23:02 29° SSW 20:23:21 29° SSW
